Mobile, AL

12:29 PM CDT on September 26, 2016 (GMT -0500)
Mobile Regional

Weather History for KMOB - March, 2015

Change the Weather History Date:

Tuesday, March 17, 2015

  Actual Average Record
Temperature  
Mean Temperature 73 °F 60 °F  
Max Temperature 85 °F 72 °F 87 °F (1963)
Min Temperature 60 °F 49 °F 34 °F (1988)
Degree Days  
Heating Degree Days 0 6  
Month to date heating degree days 82 123  
Since 1 July heating degree days 1784 1565  
Cooling Degree Days 8 1  
Month to date cooling degree days 37 17  
Year to date cooling degree days 41 33  
Growing Degree Days 22 (Base 50)    
Moisture  
Dew Point 59 °F    
Average Humidity 70    
Maximum Humidity 97    
Minimum Humidity 43    
Precipitation  
Precipitation 0.00 in 0.20 in 5.19 in (1894)
Month to date precipitation 3.43 3.37  
Year to date precipitation 9.48 14.14  
Snow  
Snow 0.00 in 0.00 in - ()
Month to date snowfall 0.0 0.1  
Since 1 July snowfall T 0.2  
Snow Depth 0.00 in    
Sea Level Pressure  
Sea Level Pressure 30.07 in    
Wind  
Wind Speed 6 mph (WNW)    
Max Wind Speed 16 mph    
Max Gust Speed 24 mph    
Visibility 10 miles    
Events      
T = Trace of Precipitation, MM = Missing Value Source: NWS Daily Summary

Daily Weather History Graph

Daily Weather History Graph

Search for Another Location

Airport or City:

Trip Planner

Search our weather history database for the weather conditions in past years. The results will help you decide how hot, cold, wet, or windy it might be!

Date:

Astronomy

Mar. 17, 2015 Rise Set
Actual Time 7:00 AM CDT 7:02 PM CDT
Civil Twilight 6:36 AM CDT 7:26 PM CDT
Nautical Twilight 6:08 AM CDT 7:54 PM CDT
Astronomical Twilight 5:40 AM CDT 8:22 PM CDT
Moon 4:47 AM CDT (3/17) 4:17 PM CDT (3/17)
Length of Visible Light 12h 49m
Length of Day
12h 01m
Waning Crescent, 11% of the Moon is Illuminated
Mar 17
Waning Crescent
Mar 20
New
Mar 27
First Quarter
Apr 4
Full
Apr 11
Last Quarter

Hourly Weather History & Observations

Time (CDT) Temp. Heat Index Dew Point Humidity Pressure Visibility Wind Dir Wind Speed Gust Speed Precip Events Conditions
12:56 AM 64.0 °F - 59.0 °F 84% 30.12 in 10.0 mi WSW 3.5 mph - N/A   Clear
1:56 AM 64.0 °F - 59.0 °F 84% 30.11 in 10.0 mi West 3.5 mph - N/A   Clear
2:56 AM 64.0 °F - 59.0 °F 84% 30.10 in 10.0 mi West 3.5 mph - N/A   Clear
3:56 AM 63.0 °F - 59.0 °F 87% 30.10 in 10.0 mi Calm Calm - N/A   Clear
4:56 AM 62.1 °F - 60.1 °F 93% 30.09 in 10.0 mi West 3.5 mph - N/A   Clear
5:56 AM 62.1 °F - 59.0 °F 90% 30.10 in 7.0 mi West 3.5 mph - N/A   Partly Cloudy
6:56 AM 61.0 °F - 59.0 °F 93% 30.11 in 7.0 mi West 3.5 mph - N/A   Partly Cloudy
7:56 AM 63.0 °F - 60.1 °F 90% 30.12 in 7.0 mi West 4.6 mph - N/A   Partly Cloudy
8:56 AM 70.0 °F - 60.1 °F 71% 30.14 in 10.0 mi WNW 6.9 mph - N/A   Partly Cloudy
9:56 AM 75.0 °F - 59.0 °F 57% 30.14 in 10.0 mi NW 9.2 mph - N/A   Partly Cloudy
10:56 AM 78.1 °F - 59.0 °F 52% 30.13 in 10.0 mi WNW 12.7 mph 19.6 mph N/A   Scattered Clouds
11:56 AM 81.0 °F 81.7 °F 61.0 °F 50% 30.12 in 10.0 mi NNW 12.7 mph - N/A   Scattered Clouds
12:56 PM 81.0 °F 81.6 °F 60.1 °F 49% 30.09 in 10.0 mi NW 10.4 mph 18.4 mph N/A   Mostly Cloudy
1:56 PM 82.9 °F 83.2 °F 60.1 °F 46% 30.06 in 10.0 mi NW 12.7 mph - N/A   Mostly Cloudy
2:56 PM 84.0 °F 84.0 °F 60.1 °F 44% 30.03 in 10.0 mi Variable 6.9 mph 16.1 mph N/A   Mostly Cloudy
3:56 PM 84.0 °F 83.8 °F 59.0 °F 43% 30.01 in 10.0 mi WNW 8.1 mph - N/A   Mostly Cloudy
4:56 PM 84.0 °F 83.8 °F 59.0 °F 43% 30.00 in 10.0 mi West 8.1 mph - N/A   Overcast
5:56 PM 82.0 °F 82.1 °F 59.0 °F 45% 30.00 in 10.0 mi WNW 5.8 mph - N/A   Overcast
6:56 PM 78.8 °F - 59.0 °F 51% 30.01 in 10.0 mi WNW 5.8 mph - N/A   Overcast
7:56 PM 75.9 °F - 57.9 °F 54% 30.01 in 10.0 mi NW 3.5 mph - N/A   Mostly Cloudy
8:56 PM 73.0 °F - 59.0 °F 61% 30.04 in 10.0 mi NW 3.5 mph - N/A   Mostly Cloudy
9:56 PM 70.0 °F - 59.0 °F 68% 30.05 in 10.0 mi NW 5.8 mph - N/A   Scattered Clouds
10:56 PM 70.0 °F - 59.0 °F 68% 30.04 in 10.0 mi NW 3.5 mph - N/A   Partly Cloudy
11:56 PM 66.0 °F - 59.0 °F 78% 30.04 in 10.0 mi NNW 3.5 mph - N/A   Clear